User: anonymous   Login
Location: Newark
(45.8667°N, 9.7333°E)
Time: 04:12:48
(UTC+00:00)
Language:

ITAMSAT 1 - Orbit

View from above orbital plane
View from above orbital plane
View from above satellite
View from above satellite

Ground track
Ground track

The orbit data is extracted from the following two-line orbital elements,

1 22826U 93061D   20058.90943171 -.00000017 +00000-0 +11312-4 0  9999
2 22826 098.9161 058.5455 0008434 333.5685 026.5065 14.30413607378247
Epoch (UTC): 27 February 2020 21:49:34
Eccentricity: 0.0008434
inclination: 98.9161°
perigee height: 784 km
apogee height: 796 km
right ascension of ascending node: 58.5455°
argument of perigee: 333.5685°
revolutions per day: 14.30413607
mean anomaly at epoch: 26.5065°
orbit number at epoch: 37824

The dashed part of the orbit path shows where the satellite is in the earth's shadow,  

DLR